Time,TemperatureF,DewpointF,PressureIn,WindDirection,WindDirectionDegrees,WindSpeedMPH,WindSpeedGustMPH,Humidity,HourlyPrecipIn,Conditions,Clouds,dailyrainin,SoftwareType,DateUTC
2013-01-25 00:00:00,33.4,19.8,30.21,East,80,11.5,11.5,57,0.00,BKN,OVC,0.00,WeatherDisplay:10.37,2013-01-25 05:00:00,
2013-01-25 00:01:00,33.4,19.8,30.21,East,80,11.5,11.5,57,0.00,CLR,OVC,0.00,WeatherDisplay:10.37,2013-01-25 05:01:00,
2013-01-25 00:02:00,33.4,19.8,30.21,East,80,11.5,11.5,57,0.00,CLR,OVC,0.00,WeatherDisplay:10.37,2013-01-25 05:02:00,
2013-01-25 00:03:00,33.4,19.8,30.21,East,80,11.5,11.5,57,0.00,CLR,OVC,0.00,WeatherDisplay:10.37,2013-01-25 05:03:00,
2013-01-25 00:08:00,34.0,19.9,30.21,East,80,11.5,11.5,56,0.00,CLR,OVC,0.00,WeatherDisplay:10.37,2013-01-25 05:08:00,
2013-01-25 00:13:00,34.0,19.5,30.22,East,80,11.5,11.5,55,0.00,CLR,OVC,0.00,WeatherDisplay:10.37,2013-01-25 05:13:00,
2013-01-25 00:18:00,34.2,19.7,30.21,ENE,70,10.4,10.4,55,0.00,CLR,OVC,0.00,WeatherDisplay:10.37,2013-01-25 05:18:00,
2013-01-25 00:23:00,34.3,19.4,30.22,ENE,70,10.4,10.4,54,0.00,CLR,OVC,0.00,WeatherDisplay:10.37,2013-01-25 05:23:00,
2013-01-25 00:28:00,34.3,19.4,30.22,ENE,70,10.4,10.4,54,0.00,CLR,OVC,0.00,WeatherDisplay:10.37,2013-01-25 05:28:00,
2013-01-25 00:33:00,34.7,19.7,30.22,ENE,70,10.4,10.4,54,0.00,CLR,OVC,0.00,WeatherDisplay:10.37,2013-01-25 05:33:00,
2013-01-25 00:38:00,34.9,19.5,30.22,ENE,70,10.4,10.4,53,0.00,CLR,OVC,0.00,WeatherDisplay:10.37,2013-01-25 05:38:00,
2013-01-25 00:43:00,34.9,19.0,30.22,ENE,70,10.4,10.4,52,0.00,CLR,OVC,0.00,WeatherDisplay:10.37,2013-01-25 05:43:00,
2013-01-25 00:48:00,34.9,19.0,30.22,ENE,70,10.4,10.4,52,0.00,CLR,OVC,0.00,WeatherDisplay:10.37,2013-01-25 05:48:00,
2013-01-25 00:53:00,34.7,17.9,30.22,ENE,70,10.4,10.4,50,0.00,CLR,OVC,0.00,WeatherDisplay:10.37,2013-01-25 05:53:00,
2013-01-25 00:58:00,34.5,17.8,30.23,ENE,70,10.4,10.4,50,0.00,CLR,OVC,0.00,WeatherDisplay:10.37,2013-01-25 05:58:00,
2013-01-25 01:03:00,34.5,16.8,30.23,ENE,70,10.4,10.4,48,0.00,CLR,OVC,0.00,WeatherDisplay:10.37,2013-01-25 06:03:00,
2013-01-25 01:08:00,34.3,16.7,30.23,ENE,70,10.4,10.4,48,0.00,CLR,OVC,0.00,WeatherDisplay:10.37,2013-01-25 06:08:00,
2013-01-25 01:13:00,34.3,16.7,30.23,ENE,70,10.4,10.4,48,0.00,CLR,OVC,0.00,WeatherDisplay:10.37,2013-01-25 06:13:00,
2013-01-25 01:18:00,34.3,16.7,30.22,East,80,20.7,20.7,48,0.00,BKN,OVC,0.00,WeatherDisplay:10.37,2013-01-25 06:18:00,
2013-01-25 01:23:00,34.3,16.2,30.22,East,80,20.7,20.7,47,0.00,BKN,OVC,0.00,WeatherDisplay:10.37,2013-01-25 06:23:00,
2013-01-25 01:28:00,34.0,15.8,30.22,East,80,20.7,20.7,47,0.00,BKN,OVC,0.00,WeatherDisplay:10.37,2013-01-25 06:28:00,
2013-01-25 01:33:00,34.0,15.8,30.22,East,80,20.7,20.7,47,0.00,BKN,OVC,0.00,WeatherDisplay:10.37,2013-01-25 06:33:00,
2013-01-25 01:38:00,33.6,14.5,30.23,East,80,20.7,20.7,45,0.00,BKN,OVC,0.00,WeatherDisplay:10.37,2013-01-25 06:38:00,
2013-01-25 01:43:00,33.6,14.5,30.24,East,80,20.7,20.7,45,0.00,BKN,OVC,0.00,WeatherDisplay:10.37,2013-01-25 06:43:00,
2013-01-25 01:48:00,33.4,14.3,30.24,East,80,20.7,20.7,45,0.00,BKN,OVC,0.00,WeatherDisplay:10.37,2013-01-25 06:48:00,
2013-01-25 01:53:00,33.4,14.8,30.24,East,80,20.7,20.7,46,0.00,BKN,OVC,0.00,WeatherDisplay:10.37,2013-01-25 06:53:00,
2013-01-25 01:58:00,33.4,14.8,30.24,East,80,20.7,20.7,46,0.00,BKN,OVC,0.00,WeatherDisplay:10.37,2013-01-25 06:58:00,
2013-01-25 02:03:00,33.3,14.7,30.24,East,80,20.7,20.7,46,0.00,BKN,OVC,0.00,WeatherDisplay:10.37,2013-01-25 07:03:00,
2013-01-25 02:08:00,33.1,14.5,30.22,East,80,20.7,20.7,46,0.00,BKN,OVC,0.00,WeatherDisplay:10.37,2013-01-25 07:08:00,
2013-01-25 02:13:00,33.1,14.5,30.23,East,80,20.7,20.7,46,0.00,BKN,OVC,0.00,WeatherDisplay:10.37,2013-01-25 07:13:00,
2013-01-25 02:18:00,32.9,13.9,30.23,ENE,70,20.7,20.7,45,0.00,BKN,OVC,0.00,WeatherDisplay:10.37,2013-01-25 07:18:00,
2013-01-25 02:23:00,32.9,14.4,30.24,ENE,70,20.7,20.7,46,0.00,BKN,OVC,0.00,WeatherDisplay:10.37,2013-01-25 07:23:00,
2013-01-25 02:28:00,32.9,13.9,30.23,ENE,70,20.7,20.7,45,0.00,BKN,OVC,0.00,WeatherDisplay:10.37,2013-01-25 07:28:00,
2013-01-25 02:33:00,32.9,13.3,30.23,ENE,70,20.7,20.7,44,0.00,BKN,OVC,0.00,WeatherDisplay:10.37,2013-01-25 07:33:00,
2013-01-25 02:38:00,32.9,14.4,30.23,ENE,70,20.7,20.7,46,0.00,BKN,OVC,0.00,WeatherDisplay:10.37,2013-01-25 07:38:00,
2013-01-25 02:43:00,32.9,13.9,30.23,ENE,70,20.7,20.7,45,0.00,BKN,OVC,0.00,WeatherDisplay:10.37,2013-01-25 07:43:00,
2013-01-25 02:48:00,32.7,13.7,30.23,ENE,70,20.7,20.7,45,0.00,BKN,OVC,0.00,WeatherDisplay:10.37,2013-01-25 07:48:00,
2013-01-25 02:53:00,32.7,13.7,30.23,ENE,70,20.7,20.7,45,0.00,BKN,OVC,0.00,WeatherDisplay:10.37,2013-01-25 07:53:00,
2013-01-25 02:58:00,32.7,14.2,30.22,ENE,70,20.7,20.7,46,0.00,BKN,OVC,0.00,WeatherDisplay:10.37,2013-01-25 07:58:00,
2013-01-25 03:03:00,32.7,13.7,30.23,ENE,70,20.7,20.7,45,0.00,BKN,OVC,0.00,WeatherDisplay:10.37,2013-01-25 08:03:00,
2013-01-25 03:08:00,32.7,13.7,30.23,ENE,70,20.7,20.7,45,0.00,BKN,OVC,0.00,WeatherDisplay:10.37,2013-01-25 08:08:00,
2013-01-25 03:13:00,32.5,13.5,30.23,ENE,70,20.7,20.7,45,0.00,BKN,OVC,0.00,WeatherDisplay:10.37,2013-01-25 08:13:00,
2013-01-25 03:18:00,32.5,13.0,30.22,East,80,13.8,13.8,44,0.00,OVC,,0.00,WeatherDisplay:10.37,2013-01-25 08:18:00,
2013-01-25 03:23:00,32.4,12.8,30.23,East,80,13.8,13.8,44,0.00,OVC,,0.00,WeatherDisplay:10.37,2013-01-25 08:23:00,
2013-01-25 03:28:00,32.4,12.8,30.24,East,80,13.8,13.8,44,0.00,OVC,,0.00,WeatherDisplay:10.37,2013-01-25 08:28:00,
2013-01-25 03:33:00,32.4,12.8,30.23,East,80,13.8,13.8,44,0.00,OVC,,0.00,WeatherDisplay:10.37,2013-01-25 08:33:00,
2013-01-25 03:38:00,32.4,12.8,30.23,East,80,13.8,13.8,44,0.00,OVC,,0.00,WeatherDisplay:10.37,2013-01-25 08:38:00,
2013-01-25 03:43:00,32.4,12.8,30.22,East,80,13.8,13.8,44,0.00,OVC,,0.00,WeatherDisplay:10.37,2013-01-25 08:43:00,
2013-01-25 03:48:00,32.4,13.4,30.22,East,80,13.8,13.8,45,0.00,OVC,,0.00,WeatherDisplay:10.37,2013-01-25 08:48:00,
2013-01-25 03:53:00,32.4,12.8,30.22,East,80,13.8,13.8,44,0.00,OVC,,0.00,WeatherDisplay:10.37,2013-01-25 08:53:00,
2013-01-25 03:58:00,32.2,12.2,30.22,East,80,13.8,13.8,43,0.00,OVC,,0.00,WeatherDisplay:10.37,2013-01-25 08:58:00,
2013-01-25 04:03:00,32.2,12.7,30.22,East,80,13.8,13.8,44,0.00,OVC,,0.00,WeatherDisplay:10.37,2013-01-25 09:03:00,
2013-01-25 04:08:00,32.2,12.7,30.22,East,80,13.8,13.8,44,0.00,OVC,,0.00,WeatherDisplay:10.37,2013-01-25 09:08:00,
2013-01-25 04:13:00,32.2,13.2,30.22,East,80,13.8,13.8,45,0.00,OVC,,0.00,WeatherDisplay:10.37,2013-01-25 09:13:00,
2013-01-25 04:18:00,32.2,13.2,30.21,ENE,70,12.7,12.7,45,0.00,OVC,,0.00,WeatherDisplay:10.37,2013-01-25 09:18:00,
2013-01-25 04:23:00,32.2,13.2,30.20,ENE,70,12.7,12.7,45,0.00,OVC,,0.00,WeatherDisplay:10.37,2013-01-25 09:23:00,
2013-01-25 04:28:00,31.8,12.4,30.20,ENE,70,12.7,12.7,44,0.00,OVC,,0.00,WeatherDisplay:10.37,2013-01-25 09:28:00,
2013-01-25 04:33:00,31.8,12.4,30.20,ENE,70,12.7,12.7,44,0.00,OVC,,0.00,WeatherDisplay:10.37,2013-01-25 09:33:00,
2013-01-25 04:38:00,31.6,11.7,30.20,ENE,70,12.7,12.7,43,0.00,OVC,,0.00,WeatherDisplay:10.37,2013-01-25 09:38:00,
2013-01-25 04:43:00,31.6,12.2,30.20,ENE,70,12.7,12.7,44,0.00,OVC,,0.00,WeatherDisplay:10.37,2013-01-25 09:43:00,
2013-01-25 04:48:00,31.6,12.2,30.20,ENE,70,12.7,12.7,44,0.00,OVC,,0.00,WeatherDisplay:10.37,2013-01-25 09:48:00,
2013-01-25 04:53:00,31.6,12.2,30.19,ENE,70,12.7,12.7,44,0.00,OVC,,0.00,WeatherDisplay:10.37,2013-01-25 09:53:00,
2013-01-25 04:58:00,31.6,12.2,30.19,ENE,70,12.7,12.7,44,0.00,OVC,,0.00,WeatherDisplay:10.37,2013-01-25 09:58:00,
2013-01-25 05:03:00,31.5,12.0,30.19,ENE,70,12.7,12.7,44,0.00,OVC,,0.00,WeatherDisplay:10.37,2013-01-25 10:03:00,
2013-01-25 05:08:00,31.6,12.7,30.19,ENE,70,12.7,12.7,45,0.00,OVC,,0.00,WeatherDisplay:10.37,2013-01-25 10:08:00,
2013-01-25 05:13:00,31.6,12.7,30.19,ENE,70,12.7,12.7,45,0.00,OVC,,0.00,WeatherDisplay:10.37,2013-01-25 10:13:00,
2013-01-25 05:18:00,31.6,12.7,30.19,East,90,24.2,24.2,45,0.00,OVC,,0.00,WeatherDisplay:10.37,2013-01-25 10:18:00,
2013-01-25 05:23:00,31.6,13.2,30.19,East,90,24.2,24.2,46,0.00,OVC,,0.00,WeatherDisplay:10.37,2013-01-25 10:23:00,
2013-01-25 05:28:00,31.6,12.7,30.19,East,90,24.2,24.2,45,0.00,OVC,,0.00,WeatherDisplay:10.37,2013-01-25 10:28:00,
2013-01-25 05:33:00,31.5,12.0,30.19,East,90,24.2,24.2,44,0.00,OVC,,0.00,WeatherDisplay:10.37,2013-01-25 10:33:00,
2013-01-25 05:38:00,31.3,11.9,30.19,East,90,24.2,24.2,44,0.00,OVC,,0.00,WeatherDisplay:10.37,2013-01-25 10:38:00,
2013-01-25 05:43:00,31.3,11.9,30.19,East,90,24.2,24.2,44,0.00,OVC,,0.00,WeatherDisplay:10.37,2013-01-25 10:43:00,
2013-01-25 05:48:00,31.1,12.2,30.19,East,90,24.2,24.2,45,0.00,OVC,,0.00,WeatherDisplay:10.37,2013-01-25 10:48:00,
2013-01-25 05:53:00,31.1,12.2,30.19,East,90,24.2,24.2,45,0.00,OVC,,0.00,WeatherDisplay:10.37,2013-01-25 10:53:00,
2013-01-25 05:58:00,31.3,12.4,30.18,East,90,24.2,24.2,45,0.00,OVC,,0.00,WeatherDisplay:10.37,2013-01-25 10:58:00,
2013-01-25 06:03:00,31.3,12.4,30.19,East,90,24.2,24.2,45,0.00,OVC,,0.00,WeatherDisplay:10.37,2013-01-25 11:03:00,
2013-01-25 06:08:00,31.1,12.2,30.19,East,90,24.2,24.2,45,0.00,OVC,,0.00,WeatherDisplay:10.37,2013-01-25 11:08:00,
2013-01-25 06:13:00,31.3,12.4,30.19,East,90,24.2,24.2,45,0.00,OVC,,0.00,WeatherDisplay:10.37,2013-01-25 11:13:00,
2013-01-25 06:18:00,31.3,12.4,30.18,East,80,11.5,11.5,45,0.00,OVC,,0.00,WeatherDisplay:10.37,2013-01-25 11:18:00,
2013-01-25 06:23:00,31.3,12.4,30.19,East,80,11.5,11.5,45,0.00,OVC,,0.00,WeatherDisplay:10.37,2013-01-25 11:23:00,
2013-01-25 06:28:00,31.3,12.4,30.19,East,80,11.5,11.5,45,0.00,OVC,,0.00,WeatherDisplay:10.37,2013-01-25 11:28:00,
2013-01-25 06:33:00,31.3,11.9,30.18,East,80,11.5,11.5,44,0.00,OVC,,0.00,WeatherDisplay:10.37,2013-01-25 11:33:00,
2013-01-25 06:38:00,31.1,12.2,30.18,East,80,11.5,11.5,45,0.00,OVC,,0.00,WeatherDisplay:10.37,2013-01-25 11:38:00,
2013-01-25 06:43:00,31.3,12.9,30.19,East,80,11.5,11.5,46,0.00,OVC,,0.00,WeatherDisplay:10.37,2013-01-25 11:43:00,
2013-01-25 06:48:00,31.3,12.4,30.19,East,80,11.5,11.5,45,0.00,OVC,,0.00,WeatherDisplay:10.37,2013-01-25 11:48:00,
2013-01-25 06:53:00,31.3,12.4,30.19,East,80,11.5,11.5,45,0.00,OVC,,0.00,WeatherDisplay:10.37,2013-01-25 11:53:00,
2013-01-25 06:58:00,31.3,12.4,30.19,East,80,11.5,11.5,45,0.00,OVC,,0.00,WeatherDisplay:10.37,2013-01-25 11:58:00,
2013-01-25 07:03:00,31.6,13.2,30.19,East,80,11.5,11.5,46,0.00,OVC,,0.00,WeatherDisplay:10.37,2013-01-25 12:03:00,
2013-01-25 07:08:00,31.6,13.2,30.19,East,80,11.5,11.5,46,0.00,OVC,,0.00,WeatherDisplay:10.37,2013-01-25 12:08:00,
2013-01-25 07:13:00,31.6,13.2,30.19,East,80,11.5,11.5,46,0.00,OVC,,0.00,WeatherDisplay:10.37,2013-01-25 12:13:00,
2013-01-25 07:18:00,31.6,13.2,30.18,East,100,8.1,8.1,46,0.00,OVC,,0.00,WeatherDisplay:10.37,2013-01-25 12:18:00,
2013-01-25 07:23:00,31.6,13.2,30.19,East,100,8.1,8.1,46,0.00,OVC,,0.00,WeatherDisplay:10.37,2013-01-25 12:23:00,
2013-01-25 07:28:00,31.6,13.2,30.18,East,100,8.1,8.1,46,0.00,OVC,,0.00,WeatherDisplay:10.37,2013-01-25 12:28:00,
2013-01-25 07:33:00,31.6,13.2,30.18,East,100,8.1,8.1,46,0.00,OVC,,0.00,WeatherDisplay:10.37,2013-01-25 12:33:00,
2013-01-25 07:38:00,31.6,13.2,30.19,East,100,8.1,8.1,46,0.00,OVC,,0.00,WeatherDisplay:10.37,2013-01-25 12:38:00,
2013-01-25 07:43:00,31.6,13.2,30.18,East,100,8.1,8.1,46,0.00,OVC,,0.00,WeatherDisplay:10.37,2013-01-25 12:43:00,
2013-01-25 07:48:00,31.6,13.7,30.18,East,100,8.1,8.1,47,0.00,OVC,,0.00,WeatherDisplay:10.37,2013-01-25 12:48:00,
2013-01-25 07:53:00,31.6,13.7,30.18,East,100,8.1,8.1,47,0.00,OVC,,0.00,WeatherDisplay:10.37,2013-01-25 12:53:00,
2013-01-25 07:58:00,31.8,13.9,30.18,East,100,8.1,8.1,47,0.00,OVC,,0.00,WeatherDisplay:10.37,2013-01-25 12:58:00,
2013-01-25 08:03:00,31.8,13.9,30.18,East,100,8.1,8.1,47,0.00,OVC,,0.00,WeatherDisplay:10.37,2013-01-25 13:03:00,
2013-01-25 08:08:00,31.6,13.2,30.17,East,100,8.1,8.1,46,0.00,OVC,,0.00,WeatherDisplay:10.37,2013-01-25 13:08:00,
2013-01-25 08:13:00,31.6,13.2,30.17,East,100,8.1,8.1,46,0.00,OVC,,0.00,WeatherDisplay:10.37,2013-01-25 13:13:00,
2013-01-25 08:18:00,31.6,13.2,30.17,East,90,8.1,8.1,46,0.00,OVC,,0.00,WeatherDisplay:10.37,2013-01-25 13:18:00,
2013-01-25 08:23:00,31.6,13.7,30.17,East,90,8.1,8.1,47,0.00,OVC,,0.00,WeatherDisplay:10.37,2013-01-25 13:23:00,
2013-01-25 08:28:00,31.6,13.2,30.18,East,90,8.1,8.1,46,0.00,OVC,,0.00,WeatherDisplay:10.37,2013-01-25 13:28:00,
2013-01-25 08:33:00,31.6,13.2,30.18,East,90,8.1,8.1,46,0.00,OVC,,0.00,WeatherDisplay:10.37,2013-01-25 13:33:00,
2013-01-25 08:38:00,31.6,13.2,30.17,East,90,8.1,8.1,46,0.00,OVC,,0.00,WeatherDisplay:10.37,2013-01-25 13:38:00,
2013-01-25 08:43:00,31.5,12.5,30.17,East,90,8.1,8.1,45,0.00,OVC,,0.00,WeatherDisplay:10.37,2013-01-25 13:43:00,
2013-01-25 08:48:00,31.5,13.0,30.18,East,100,11.5,11.5,46,0.00,OVC,,0.00,WeatherDisplay:10.37,2013-01-25 13:48:00,
2013-01-25 08:53:00,31.3,13.4,30.17,East,100,11.5,11.5,47,0.00,OVC,,0.00,WeatherDisplay:10.37,2013-01-25 13:53:00,
2013-01-25 08:58:00,31.3,15.2,30.17,East,100,11.5,11.5,51,0.00,OVC,,0.00,WeatherDisplay:10.37,2013-01-25 13:58:00,
2013-01-25 09:03:00,31.1,16.4,30.17,East,100,11.5,11.5,54,0.00,OVC,,0.00,WeatherDisplay:10.37,2013-01-25 14:03:00,
2013-01-25 09:08:00,31.1,17.2,30.17,East,100,11.5,11.5,56,0.00,OVC,,0.00,WeatherDisplay:10.37,2013-01-25 14:08:00,
2013-01-25 09:13:00,30.7,17.3,30.16,East,100,11.5,11.5,57,0.00,OVC,,0.00,WeatherDisplay:10.37,2013-01-25 14:13:00,
2013-01-25 09:18:00,30.7,17.7,30.17,East,80,6.9,6.9,58,0.00,OVC,,0.00,WeatherDisplay:10.37,2013-01-25 14:18:00,
2013-01-25 09:23:00,30.7,18.1,30.17,East,80,6.9,6.9,59,0.00,OVC,,0.00,WeatherDisplay:10.37,2013-01-25 14:23:00,
2013-01-25 09:28:00,30.7,18.1,30.17,East,80,6.9,6.9,59,0.00,OVC,,0.00,WeatherDisplay:10.37,2013-01-25 14:28:00,
2013-01-25 09:33:00,30.7,18.5,30.17,East,80,6.9,6.9,60,0.00,OVC,,0.00,WeatherDisplay:10.37,2013-01-25 14:33:00,
2013-01-25 09:38:00,30.4,18.1,30.17,East,80,6.9,6.9,60,0.00,OVC,,0.00,WeatherDisplay:10.37,2013-01-25 14:38:00,
2013-01-25 09:43:00,30.4,18.1,30.16,East,80,6.9,6.9,60,0.00,OVC,,0.00,WeatherDisplay:10.37,2013-01-25 14:43:00,
2013-01-25 09:48:00,30.2,17.6,30.16,East,100,8.1,8.1,59,0.00,OVC,,0.00,WeatherDisplay:10.37,2013-01-25 14:48:00,
2013-01-25 09:53:00,30.0,17.4,30.16,East,100,8.1,8.1,59,0.00,OVC,,0.00,WeatherDisplay:10.37,2013-01-25 14:53:00,
2013-01-25 09:58:00,30.0,17.8,30.16,East,100,8.1,8.1,60,0.00,OVC,,0.00,WeatherDisplay:10.37,2013-01-25 14:58:00,
2013-01-25 10:03:00,29.8,17.6,30.16,East,100,8.1,8.1,60,0.00,OVC,,0.00,WeatherDisplay:10.37,2013-01-25 15:03:00,
2013-01-25 10:08:00,29.8,17.6,30.15,East,100,8.1,8.1,60,0.00,OVC,,0.00,WeatherDisplay:10.37,2013-01-25 15:08:00,
2013-01-25 10:13:00,29.8,18.4,30.15,East,100,8.1,8.1,62,0.00,OVC,,0.00,WeatherDisplay:10.37,2013-01-25 15:13:00,
2013-01-25 10:18:00,29.8,18.8,30.15,East,80,6.9,6.9,63,0.00,OVC,,0.00,WeatherDisplay:10.37,2013-01-25 15:18:00,
2013-01-25 10:23:00,29.7,18.6,30.16,East,80,6.9,6.9,63,0.00,OVC,,0.00,WeatherDisplay:10.37,2013-01-25 15:23:00,
2013-01-25 10:28:00,29.7,19.0,30.16,East,80,6.9,6.9,64,0.00,OVC,,0.00,WeatherDisplay:10.37,2013-01-25 15:28:00,
2013-01-25 10:33:00,29.5,18.8,30.16,East,80,6.9,6.9,64,0.00,OVC,,0.00,WeatherDisplay:10.37,2013-01-25 15:33:00,
2013-01-25 10:38:00,29.5,19.5,30.15,East,80,6.9,6.9,66,0.00,OVC,,0.00,WeatherDisplay:10.37,2013-01-25 15:38:00,
2013-01-25 10:43:00,29.5,19.2,30.15,East,80,6.9,6.9,65,0.00,OVC,,0.00,WeatherDisplay:10.37,2013-01-25 15:43:00,
2013-01-25 10:48:00,29.5,19.5,30.14,ENE,60,8.1,8.1,66,0.00,OVC,,0.00,WeatherDisplay:10.37,2013-01-25 15:48:00,
2013-01-25 10:53:00,29.7,19.7,30.14,ENE,60,8.1,8.1,66,0.00,OVC,,0.00,WeatherDisplay:10.37,2013-01-25 15:53:00,
2013-01-25 10:58:00,29.7,19.7,30.14,ENE,60,8.1,8.1,66,0.00,OVC,,0.00,WeatherDisplay:10.37,2013-01-25 15:58:00,
2013-01-25 11:03:00,29.7,19.7,30.13,ENE,60,8.1,8.1,66,0.00,OVC,,0.00,WeatherDisplay:10.37,2013-01-25 16:03:00,
2013-01-25 11:08:00,29.7,19.7,30.14,ENE,60,8.1,8.1,66,0.00,OVC,,0.00,WeatherDisplay:10.37,2013-01-25 16:08:00,
2013-01-25 11:13:00,29.5,19.5,30.14,ENE,60,8.1,8.1,66,0.00,OVC,,0.00,WeatherDisplay:10.37,2013-01-25 16:13:00,
2013-01-25 11:18:00,29.7,20.0,30.14,East,90,8.1,8.1,67,0.00,OVC,,0.00,WeatherDisplay:10.37,2013-01-25 16:18:00,
2013-01-25 11:23:00,29.7,19.7,30.14,East,90,8.1,8.1,66,0.00,OVC,,0.00,WeatherDisplay:10.37,2013-01-25 16:23:00,
2013-01-25 11:28:00,29.5,19.5,30.14,East,90,8.1,8.1,66,0.00,OVC,,0.00,WeatherDisplay:10.37,2013-01-25 16:28:00,
2013-01-25 11:33:00,29.3,19.0,30.15,East,90,8.1,8.1,65,0.00,OVC,,0.00,WeatherDisplay:10.37,2013-01-25 16:33:00,
2013-01-25 11:38:00,29.3,19.3,30.14,East,90,8.1,8.1,66,0.00,OVC,,0.00,WeatherDisplay:10.37,2013-01-25 16:38:00,
2013-01-25 11:43:00,29.3,19.3,30.13,East,90,8.1,8.1,66,0.00,OVC,,0.00,WeatherDisplay:10.37,2013-01-25 16:43:00,
2013-01-25 11:48:00,29.5,19.9,30.13,East,90,8.1,8.1,67,0.00,OVC,,0.00,WeatherDisplay:10.37,2013-01-25 16:48:00,
2013-01-25 11:53:00,29.5,19.9,30.12,East,90,8.1,8.1,67,0.00,OVC,,0.00,WeatherDisplay:10.37,2013-01-25 16:53:00,
2013-01-25 11:58:00,29.5,20.2,30.12,East,90,8.1,8.1,68,0.00,OVC,,0.00,WeatherDisplay:10.37,2013-01-25 16:58:00,
2013-01-25 12:03:00,29.5,19.5,30.12,East,90,8.1,8.1,66,0.00,OVC,,0.00,WeatherDisplay:10.37,2013-01-25 17:03:00,
2013-01-25 12:08:00,29.5,19.5,30.11,East,90,8.1,8.1,66,0.00,OVC,,0.00,WeatherDisplay:10.37,2013-01-25 17:08:00,
2013-01-25 12:13:00,29.5,19.9,30.11,East,90,8.1,8.1,67,0.00,OVC,,0.00,WeatherDisplay:10.37,2013-01-25 17:13:00,
2013-01-25 12:18:00,29.3,19.7,30.11,East,80,8.1,8.1,67,0.00,OVC,,0.00,WeatherDisplay:10.37,2013-01-25 17:18:00,
2013-01-25 12:23:00,29.5,19.9,30.10,East,80,8.1,8.1,67,0.00,OVC,,0.00,WeatherDisplay:10.37,2013-01-25 17:23:00,
2013-01-25 12:28:00,29.5,19.9,30.09,East,80,8.1,8.1,67,0.00,OVC,,0.00,WeatherDisplay:10.37,2013-01-25 17:28:00,
2013-01-25 12:33:00,29.7,20.4,30.10,East,80,8.1,8.1,68,0.00,OVC,,0.00,WeatherDisplay:10.37,2013-01-25 17:33:00,
2013-01-25 12:38:00,29.7,20.0,30.09,East,80,8.1,8.1,67,0.00,OVC,,0.00,WeatherDisplay:10.37,2013-01-25 17:38:00,
2013-01-25 12:43:00,29.8,20.2,30.08,East,80,8.1,8.1,67,0.00,OVC,,0.00,WeatherDisplay:10.37,2013-01-25 17:43:00,
2013-01-25 12:48:00,29.8,20.2,30.09,East,80,8.1,8.1,67,0.00,OVC,,0.00,WeatherDisplay:10.37,2013-01-25 17:48:00,
2013-01-25 12:53:00,29.7,19.7,30.08,East,80,8.1,8.1,66,0.00,OVC,,0.00,WeatherDisplay:10.37,2013-01-25 17:53:00,
2013-01-25 12:58:00,29.5,19.9,30.08,East,80,8.1,8.1,67,0.00,OVC,,0.00,WeatherDisplay:10.37,2013-01-25 17:58:00,
2013-01-25 13:03:00,29.5,19.9,30.07,East,80,8.1,8.1,67,0.00,OVC,,0.00,WeatherDisplay:10.37,2013-01-25 18:03:00,
2013-01-25 13:08:00,29.5,19.9,30.06,East,80,8.1,8.1,67,0.00,OVC,,0.00,WeatherDisplay:10.37,2013-01-25 18:08:00,
2013-01-25 13:13:00,29.7,20.4,30.06,East,80,8.1,8.1,68,0.00,OVC,,0.00,WeatherDisplay:10.37,2013-01-25 18:13:00,
2013-01-25 13:18:00,29.5,19.9,30.06,ENE,70,8.1,8.1,67,0.00,OVC,,0.00,WeatherDisplay:10.37,2013-01-25 18:18:00,
2013-01-25 13:23:00,29.3,20.0,30.06,ENE,70,8.1,8.1,68,0.00,OVC,,0.00,WeatherDisplay:10.37,2013-01-25 18:23:00,
2013-01-25 13:28:00,29.5,20.2,30.07,ENE,70,8.1,8.1,68,0.00,OVC,,0.00,WeatherDisplay:10.37,2013-01-25 18:28:00,
2013-01-25 13:33:00,29.5,20.2,30.06,ENE,70,8.1,8.1,68,0.00,OVC,,0.00,WeatherDisplay:10.37,2013-01-25 18:33:00,
2013-01-25 13:38:00,29.5,20.6,30.05,ENE,70,8.1,8.1,69,0.00,OVC,,0.00,WeatherDisplay:10.37,2013-01-25 18:38:00,
2013-01-25 13:43:00,29.7,20.7,30.05,ENE,70,8.1,8.1,69,0.00,OVC,,0.00,WeatherDisplay:10.37,2013-01-25 18:43:00,
2013-01-25 13:48:00,29.7,20.7,30.04,ENE,70,8.1,8.1,69,0.00,OVC,,0.00,WeatherDisplay:10.37,2013-01-25 18:48:00,
2013-01-25 13:53:00,29.8,21.2,30.04,ENE,70,8.1,8.1,70,0.00,OVC,,0.00,WeatherDisplay:10.37,2013-01-25 18:53:00,
2013-01-25 13:58:00,29.8,21.6,30.06,ENE,70,8.1,8.1,71,0.00,OVC,,0.00,WeatherDisplay:10.37,2013-01-25 18:58:00,
2013-01-25 14:03:00,29.8,21.6,30.07,ENE,70,8.1,8.1,71,0.00,OVC,,0.00,WeatherDisplay:10.37,2013-01-25 19:03:00,
2013-01-25 14:08:00,29.7,21.1,30.09,ENE,70,8.1,8.1,70,0.00,OVC,,0.00,WeatherDisplay:10.37,2013-01-25 19:08:00,
2013-01-25 14:13:00,29.7,21.1,30.07,ENE,70,8.1,8.1,70,0.00,OVC,,0.00,WeatherDisplay:10.37,2013-01-25 19:13:00,
2013-01-25 14:18:00,29.5,21.6,30.06,East,80,4.6,4.6,72,0.00,OVC,,0.00,WeatherDisplay:10.37,2013-01-25 19:18:00,
2013-01-25 14:23:00,29.7,21.7,30.05,East,80,4.6,4.6,72,0.00,OVC,,0.00,WeatherDisplay:10.37,2013-01-25 19:23:00,
2013-01-25 14:28:00,29.7,22.1,30.04,East,80,4.6,4.6,73,0.00,OVC,,0.00,WeatherDisplay:10.37,2013-01-25 19:28:00,
2013-01-25 14:33:00,29.8,22.6,30.03,East,80,4.6,4.6,74,0.00,OVC,,0.00,WeatherDisplay:10.37,2013-01-25 19:33:00,
2013-01-25 14:38:00,29.8,22.6,30.02,East,80,4.6,4.6,74,0.00,OVC,,0.00,WeatherDisplay:10.37,2013-01-25 19:38:00,
2013-01-25 14:43:00,29.8,22.6,30.03,East,80,4.6,4.6,74,0.00,OVC,,0.00,WeatherDisplay:10.37,2013-01-25 19:43:00,
2013-01-25 14:48:00,29.8,22.6,30.04,East,100,5.8,5.8,74,0.00,OVC,,0.00,WeatherDisplay:10.37,2013-01-25 19:48:00,
2013-01-25 14:53:00,29.5,22.2,30.02,East,100,5.8,5.8,74,0.00,OVC,,0.00,WeatherDisplay:10.37,2013-01-25 19:53:00,
2013-01-25 14:58:00,29.5,22.2,30.02,East,100,5.8,5.8,74,0.00,OVC,,0.00,WeatherDisplay:10.37,2013-01-25 19:58:00,
2013-01-25 15:03:00,29.5,22.2,30.02,East,100,5.8,5.8,74,0.00,OVC,,0.00,WeatherDisplay:10.37,2013-01-25 20:03:00,
2013-01-25 15:08:00,29.5,22.5,30.03,East,100,5.8,5.8,75,0.00,OVC,,0.00,WeatherDisplay:10.37,2013-01-25 20:08:00,
2013-01-25 15:13:00,29.5,22.5,30.03,East,100,5.8,5.8,75,0.00,OVC,,0.00,WeatherDisplay:10.37,2013-01-25 20:13:00,
2013-01-25 15:18:00,29.5,22.5,30.02,ESE,120,3.5,3.5,75,0.00,OVC,,0.00,WeatherDisplay:10.37,2013-01-25 20:18:00,
2013-01-25 15:23:00,29.7,23.0,30.02,ESE,120,3.5,3.5,76,0.00,OVC,,0.00,WeatherDisplay:10.37,2013-01-25 20:23:00,
2013-01-25 15:28:00,29.8,23.2,30.02,ESE,120,3.5,3.5,76,0.00,OVC,,0.00,WeatherDisplay:10.37,2013-01-25 20:28:00,
2013-01-25 15:33:00,29.8,22.9,30.01,ESE,120,3.5,3.5,75,0.00,OVC,,0.00,WeatherDisplay:10.37,2013-01-25 20:33:00,
2013-01-25 15:38:00,29.8,22.9,30.01,ESE,120,3.5,3.5,75,0.00,OVC,,0.00,WeatherDisplay:10.37,2013-01-25 20:38:00,
2013-01-25 15:43:00,29.8,23.2,30.00,ESE,120,3.5,3.5,76,0.00,OVC,,0.00,WeatherDisplay:10.37,2013-01-25 20:43:00,
2013-01-25 15:48:00,30.0,23.4,30.00,ESE,120,3.5,3.5,76,0.00,OVC,,0.00,WeatherDisplay:10.37,2013-01-25 20:48:00,
2013-01-25 15:53:00,30.0,23.4,29.99,ESE,120,3.5,3.5,76,0.00,OVC,,0.00,WeatherDisplay:10.37,2013-01-25 20:53:00,
2013-01-25 15:58:00,30.0,23.4,29.99,ESE,120,3.5,3.5,76,0.00,OVC,,0.00,WeatherDisplay:10.37,2013-01-25 20:58:00,
2013-01-25 16:03:00,30.0,23.4,29.99,ESE,120,3.5,3.5,76,0.00,OVC,,0.00,WeatherDisplay:10.37,2013-01-25 21:03:00,
2013-01-25 16:08:00,30.0,23.4,29.99,ESE,120,3.5,3.5,76,0.00,OVC,,0.00,WeatherDisplay:10.37,2013-01-25 21:08:00,
2013-01-25 16:13:00,30.0,23.4,29.99,ESE,120,3.5,3.5,76,0.00,OVC,,0.00,WeatherDisplay:10.37,2013-01-25 21:13:00,
2013-01-25 16:18:00,30.0,23.7,29.99,ESE,120,0.0,0.0,77,0.00,OVC,,0.00,WeatherDisplay:10.37,2013-01-25 21:18:00,
2013-01-25 16:23:00,30.0,23.4,29.99,ESE,120,0.0,0.0,76,0.00,OVC,,0.00,WeatherDisplay:10.37,2013-01-25 21:23:00,
2013-01-25 16:28:00,30.0,23.7,29.99,ESE,120,0.0,0.0,77,0.00,OVC,,0.00,WeatherDisplay:10.37,2013-01-25 21:28:00,
2013-01-25 16:33:00,30.0,23.7,29.99,ESE,120,0.0,0.0,77,0.00,OVC,,0.00,WeatherDisplay:10.37,2013-01-25 21:33:00,
2013-01-25 16:38:00,30.2,23.9,29.99,ESE,120,0.0,0.0,77,0.00,OVC,,0.00,WeatherDisplay:10.37,2013-01-25 21:38:00,
2013-01-25 16:43:00,30.4,24.0,29.99,ESE,120,0.0,0.0,77,0.00,OVC,,0.00,WeatherDisplay:10.37,2013-01-25 21:43:00,
2013-01-25 16:48:00,30.4,24.0,29.99,ESE,120,0.0,0.0,77,0.00,OVC,,0.00,WeatherDisplay:10.37,2013-01-25 21:48:00,
2013-01-25 16:53:00,30.4,24.0,29.99,ESE,120,0.0,0.0,77,0.00,OVC,,0.00,WeatherDisplay:10.37,2013-01-25 21:53:00,
2013-01-25 16:58:00,30.4,24.0,29.99,ESE,120,0.0,0.0,77,0.00,OVC,,0.00,WeatherDisplay:10.37,2013-01-25 21:58:00,
2013-01-25 17:03:00,30.6,24.2,29.98,ESE,120,0.0,0.0,77,0.00,OVC,,0.00,WeatherDisplay:10.37,2013-01-25 22:03:00,
2013-01-25 17:08:00,30.6,24.2,29.98,ESE,120,0.0,0.0,77,0.00,OVC,,0.00,WeatherDisplay:10.37,2013-01-25 22:08:00,
2013-01-25 17:13:00,30.4,24.0,29.98,ESE,120,0.0,0.0,77,0.00,OVC,,0.00,WeatherDisplay:10.37,2013-01-25 22:13:00,
2013-01-25 17:18:00,30.4,24.0,29.98,SE,130,4.6,4.6,77,0.00,OVC,,0.00,WeatherDisplay:10.37,2013-01-25 22:18:00,
2013-01-25 17:23:00,30.4,24.0,29.99,SE,130,4.6,4.6,77,0.00,OVC,,0.00,WeatherDisplay:10.37,2013-01-25 22:23:00,
2013-01-25 17:28:00,30.4,24.0,29.98,SE,130,4.6,4.6,77,0.00,OVC,,0.00,WeatherDisplay:10.37,2013-01-25 22:28:00,
2013-01-25 17:33:00,30.4,24.3,29.99,SE,130,4.6,4.6,78,0.00,OVC,,0.00,WeatherDisplay:10.37,2013-01-25 22:33:00,
2013-01-25 17:38:00,30.6,24.2,29.98,SE,130,4.6,4.6,77,0.00,OVC,,0.00,WeatherDisplay:10.37,2013-01-25 22:38:00,
2013-01-25 17:43:00,30.7,24.7,29.99,SE,130,4.6,4.6,78,0.00,OVC,,0.00,WeatherDisplay:10.37,2013-01-25 22:43:00,
2013-01-25 17:48:00,30.7,24.7,29.99,SE,130,4.6,4.6,78,0.00,OVC,,0.00,WeatherDisplay:10.37,2013-01-25 22:48:00,
2013-01-25 17:53:00,30.7,24.4,29.98,SE,130,4.6,4.6,77,0.00,OVC,,0.00,WeatherDisplay:10.37,2013-01-25 22:53:00,
2013-01-25 17:58:00,30.7,24.4,29.98,SE,130,4.6,4.6,77,0.00,OVC,,0.00,WeatherDisplay:10.37,2013-01-25 22:58:00,
2013-01-25 18:03:00,30.7,24.7,29.98,SE,130,4.6,4.6,78,0.00,OVC,,0.00,WeatherDisplay:10.37,2013-01-25 23:03:00,
2013-01-25 18:08:00,30.7,24.7,29.98,SE,130,4.6,4.6,78,0.00,OVC,,0.00,WeatherDisplay:10.37,2013-01-25 23:08:00,
2013-01-25 18:13:00,30.7,24.7,29.99,SE,130,4.6,4.6,78,0.00,OVC,,0.00,WeatherDisplay:10.37,2013-01-25 23:13:00,
2013-01-25 18:18:00,30.7,24.7,29.98,SE,130,0.0,0.0,78,0.00,OVC,,0.00,WeatherDisplay:10.37,2013-01-25 23:18:00,
2013-01-25 18:23:00,30.9,24.9,29.98,SE,130,0.0,0.0,78,0.00,OVC,,0.00,WeatherDisplay:10.37,2013-01-25 23:23:00,
2013-01-25 18:28:00,30.7,24.7,29.99,SE,130,0.0,0.0,78,0.00,OVC,,0.00,WeatherDisplay:10.37,2013-01-25 23:28:00,
2013-01-25 18:33:00,30.6,24.5,29.98,SE,130,0.0,0.0,78,0.00,OVC,,0.00,WeatherDisplay:10.37,2013-01-25 23:33:00,
2013-01-25 18:38:00,30.7,24.7,29.98,SE,130,0.0,0.0,78,0.00,OVC,,0.00,WeatherDisplay:10.37,2013-01-25 23:38:00,
2013-01-25 18:43:00,30.7,24.7,29.98,SE,130,0.0,0.0,78,0.00,OVC,,0.00,WeatherDisplay:10.37,2013-01-25 23:43:00,
2013-01-25 18:48:00,30.7,24.7,29.98,SE,130,0.0,0.0,78,0.00,OVC,,0.00,WeatherDisplay:10.37,2013-01-25 23:48:00,
2013-01-25 18:53:00,30.7,24.7,29.98,SE,130,0.0,0.0,78,0.00,OVC,,0.00,WeatherDisplay:10.37,2013-01-25 23:53:00,
2013-01-25 18:58:00,30.7,24.7,29.98,SE,130,0.0,0.0,78,0.00,OVC,,0.00,WeatherDisplay:10.37,2013-01-25 23:58:00,
2013-01-25 19:03:00,30.7,24.7,29.98,SE,130,0.0,0.0,78,0.00,OVC,,0.00,WeatherDisplay:10.37,2013-01-26 00:03:00,
2013-01-25 19:08:00,30.7,25.0,29.98,SE,130,0.0,0.0,79,0.00,OVC,,0.00,WeatherDisplay:10.37,2013-01-26 00:08:00,
2013-01-25 19:13:00,30.7,25.0,29.98,SE,130,0.0,0.0,79,0.00,OVC,,0.00,WeatherDisplay:10.37,2013-01-26 00:13:00,
2013-01-25 19:18:00,30.7,25.0,29.98,SE,130,0.0,0.0,79,0.00,OVC,,0.00,WeatherDisplay:10.37,2013-01-26 00:18:00,
2013-01-25 19:23:00,31.3,25.5,29.98,SE,130,0.0,0.0,79,0.00,OVC,,0.00,WeatherDisplay:10.37,2013-01-26 00:23:00,
2013-01-25 19:28:00,31.3,25.5,29.98,SE,130,0.0,0.0,79,0.00,OVC,,0.00,WeatherDisplay:10.37,2013-01-26 00:28:00,
2013-01-25 19:33:00,31.6,26.2,29.98,SE,130,0.0,0.0,80,0.00,OVC,,0.00,WeatherDisplay:10.37,2013-01-26 00:33:00,
2013-01-25 19:38:00,31.6,26.2,29.98,SE,130,0.0,0.0,80,0.00,OVC,,0.00,WeatherDisplay:10.37,2013-01-26 00:38:00,
2013-01-25 19:43:00,31.6,26.2,29.98,SE,130,0.0,0.0,80,0.00,OVC,,0.00,WeatherDisplay:10.37,2013-01-26 00:43:00,
2013-01-25 19:48:00,31.8,26.4,29.98,SE,130,0.0,0.0,80,0.00,OVC,,0.00,WeatherDisplay:10.37,2013-01-26 00:48:00,
2013-01-25 19:53:00,31.8,26.4,29.98,SE,130,0.0,0.0,80,0.00,OVC,,0.00,WeatherDisplay:10.37,2013-01-26 00:53:00,
2013-01-25 19:58:00,31.8,26.4,29.98,SE,130,0.0,0.0,80,0.00,OVC,,0.00,WeatherDisplay:10.37,2013-01-26 00:58:00,
2013-01-25 20:03:00,32.0,26.5,29.98,SE,130,0.0,0.0,80,0.00,OVC,,0.00,WeatherDisplay:10.37,2013-01-26 01:03:00,
2013-01-25 20:08:00,32.0,26.5,29.98,SE,130,0.0,0.0,80,0.00,OVC,,0.00,WeatherDisplay:10.37,2013-01-26 01:08:00,
2013-01-25 20:13:00,32.0,26.5,29.98,SE,130,0.0,0.0,80,0.00,OVC,,0.00,WeatherDisplay:10.37,2013-01-26 01:13:00,
2013-01-25 20:18:00,32.0,26.8,29.98,NW,310,4.6,4.6,81,0.00,OVC,,0.00,WeatherDisplay:10.37,2013-01-26 01:18:00,
2013-01-25 20:23:00,32.2,27.0,29.98,NW,310,4.6,4.6,81,0.00,OVC,,0.00,WeatherDisplay:10.37,2013-01-26 01:23:00,
2013-01-25 20:28:00,32.2,27.0,29.98,NW,310,4.6,4.6,81,0.00,OVC,,0.00,WeatherDisplay:10.37,2013-01-26 01:28:00,
2013-01-25 20:33:00,32.4,27.2,29.98,NW,310,4.6,4.6,81,0.00,OVC,,0.00,WeatherDisplay:10.37,2013-01-26 01:33:00,
2013-01-25 20:38:00,32.4,27.5,29.97,NW,310,4.6,4.6,82,0.00,OVC,,0.00,WeatherDisplay:10.37,2013-01-26 01:38:00,
2013-01-25 20:43:00,32.4,27.5,29.97,NW,310,4.6,4.6,82,0.00,OVC,,0.00,WeatherDisplay:10.37,2013-01-26 01:43:00,
2013-01-25 20:48:00,32.5,27.7,29.97,WNW,290,3.5,3.5,82,0.00,OVC,,0.00,WeatherDisplay:10.37,2013-01-26 01:48:00,
2013-01-25 20:53:00,32.5,27.7,29.97,WNW,290,3.5,3.5,82,0.00,OVC,,0.00,WeatherDisplay:10.37,2013-01-26 01:53:00,
2013-01-25 20:58:00,32.7,27.8,29.97,WNW,290,3.5,3.5,82,0.00,OVC,,0.00,WeatherDisplay:10.37,2013-01-26 01:58:00,
2013-01-25 21:03:00,32.7,27.8,29.97,WNW,290,3.5,3.5,82,0.00,OVC,,0.00,WeatherDisplay:10.37,2013-01-26 02:03:00,
2013-01-25 21:08:00,32.7,27.8,29.97,WNW,290,3.5,3.5,82,0.00,OVC,,0.00,WeatherDisplay:10.37,2013-01-26 02:08:00,
2013-01-25 21:13:00,32.7,27.8,29.96,WNW,290,3.5,3.5,82,0.00,OVC,,0.00,WeatherDisplay:10.37,2013-01-26 02:13:00,
2013-01-25 21:18:00,32.7,28.1,29.96,WNW,290,0.0,0.0,83,0.00,OVC,,0.00,WeatherDisplay:10.37,2013-01-26 02:18:00,
2013-01-25 21:23:00,32.7,28.1,29.97,WNW,290,0.0,0.0,83,0.00,OVC,,0.00,WeatherDisplay:10.37,2013-01-26 02:23:00,
2013-01-25 21:28:00,32.9,28.3,29.97,WNW,290,0.0,0.0,83,0.00,OVC,,0.00,WeatherDisplay:10.37,2013-01-26 02:28:00,
2013-01-25 21:33:00,32.9,28.3,29.96,WNW,290,0.0,0.0,83,0.00,OVC,,0.00,WeatherDisplay:10.37,2013-01-26 02:33:00,
2013-01-25 21:38:00,32.9,28.3,29.96,WNW,290,0.0,0.0,83,0.00,OVC,,0.00,WeatherDisplay:10.37,2013-01-26 02:38:00,
2013-01-25 21:43:00,33.1,28.8,29.97,WNW,290,0.0,0.0,84,0.00,OVC,,0.00,WeatherDisplay:10.37,2013-01-26 02:43:00,
2013-01-25 21:48:00,33.1,28.8,29.97,WNW,290,0.0,0.0,84,0.00,OVC,,0.00,WeatherDisplay:10.37,2013-01-26 02:48:00,
2013-01-25 21:53:00,33.3,28.9,29.97,WNW,290,0.0,0.0,84,0.00,OVC,,0.00,WeatherDisplay:10.37,2013-01-26 02:53:00,
2013-01-25 21:58:00,33.3,28.9,29.97,WNW,290,0.0,0.0,84,0.00,OVC,,0.00,WeatherDisplay:10.37,2013-01-26 02:58:00,
2013-01-25 22:03:00,33.4,29.1,29.97,WNW,290,0.0,0.0,84,0.00,OVC,,0.00,WeatherDisplay:10.37,2013-01-26 03:03:00,
2013-01-25 22:08:00,33.4,29.1,29.98,WNW,290,0.0,0.0,84,0.00,OVC,,0.00,WeatherDisplay:10.37,2013-01-26 03:08:00,
2013-01-25 22:13:00,33.4,29.1,29.97,WNW,290,0.0,0.0,84,0.00,OVC,,0.00,WeatherDisplay:10.37,2013-01-26 03:13:00,
2013-01-25 22:18:00,33.6,29.6,29.97,NW,310,5.8,5.8,85,0.00,OVC,,0.00,WeatherDisplay:10.37,2013-01-26 03:18:00,
2013-01-25 22:23:00,33.6,29.6,29.97,NW,310,5.8,5.8,85,0.00,OVC,,0.00,WeatherDisplay:10.37,2013-01-26 03:23:00,
2013-01-25 22:28:00,33.6,29.6,29.96,NW,310,5.8,5.8,85,0.00,OVC,,0.00,WeatherDisplay:10.37,2013-01-26 03:28:00,
2013-01-25 22:33:00,33.6,29.6,29.96,NW,310,5.8,5.8,85,0.00,OVC,,0.00,WeatherDisplay:10.37,2013-01-26 03:33:00,
2013-01-25 22:38:00,33.6,29.6,29.97,NW,310,5.8,5.8,85,0.00,OVC,,0.00,WeatherDisplay:10.37,2013-01-26 03:38:00,
2013-01-25 22:43:00,33.8,29.8,29.97,NW,310,5.8,5.8,85,0.00,OVC,,0.00,WeatherDisplay:10.37,2013-01-26 03:43:00,
2013-01-25 22:48:00,34.0,29.9,29.96,NW,310,5.8,5.8,85,0.00,OVC,,0.00,WeatherDisplay:10.37,2013-01-26 03:48:00,
2013-01-25 22:53:00,34.0,29.9,29.96,NW,310,5.8,5.8,85,0.00,OVC,,0.00,WeatherDisplay:10.37,2013-01-26 03:53:00,
2013-01-25 22:58:00,34.0,29.9,29.96,NW,310,5.8,5.8,85,0.00,OVC,,0.00,WeatherDisplay:10.37,2013-01-26 03:58:00,
2013-01-25 23:03:00,34.2,30.1,29.96,NW,310,5.8,5.8,85,0.00,OVC,,0.00,WeatherDisplay:10.37,2013-01-26 04:03:00,
2013-01-25 23:08:00,34.3,30.3,29.96,NW,310,5.8,5.8,85,0.02,RA,OVC,0.02,WeatherDisplay:10.37,2013-01-26 04:08:00,
2013-01-25 23:13:00,34.3,30.3,29.96,NW,310,5.8,5.8,85,0.02,RA,OVC,0.02,WeatherDisplay:10.37,2013-01-26 04:13:00,
2013-01-25 23:18:00,34.3,30.3,29.96,West,270,3.5,3.5,85,0.02,-RA,OVC,0.02,WeatherDisplay:10.37,2013-01-26 04:18:00,
2013-01-25 23:23:00,34.3,30.3,29.96,West,270,3.5,3.5,85,0.02,-RA,OVC,0.02,WeatherDisplay:10.37,2013-01-26 04:23:00,
2013-01-25 23:28:00,34.3,30.3,29.96,West,270,3.5,3.5,85,0.02,-RA,OVC,0.02,WeatherDisplay:10.37,2013-01-26 04:28:00,
2013-01-25 23:33:00,34.5,30.5,29.96,West,270,3.5,3.5,85,0.02,-RA,OVC,0.02,WeatherDisplay:10.37,2013-01-26 04:33:00,
2013-01-25 23:38:00,34.5,30.8,29.96,West,270,3.5,3.5,86,0.02,-RA,OVC,0.02,WeatherDisplay:10.37,2013-01-26 04:38:00,
2013-01-25 23:43:00,34.7,30.9,29.95,West,270,3.5,3.5,86,0.02,-RA,OVC,0.02,WeatherDisplay:10.37,2013-01-26 04:43:00,
2013-01-25 23:48:00,34.9,31.1,29.96,WSW,240,5.8,5.8,86,0.02,OVC,,0.02,WeatherDisplay:10.37,2013-01-26 04:48:00,
2013-01-25 23:53:00,34.9,31.1,29.95,WSW,240,5.8,5.8,86,0.02,OVC,,0.02,WeatherDisplay:10.37,2013-01-26 04:53:00,
2013-01-25 23:58:00,35.2,31.5,29.96,WSW,240,5.8,5.8,86,0.02,OVC,,0.02,WeatherDisplay:10.37,2013-01-26 04:58:00,